Change the Weather History Date:

Saturday, November 17, 2012

  Actual Average Record
Temperature  
Mean Temperature 57 °F 50 °F  
Max Temperature 67 °F 64 °F 80 °F (2008)
Min Temperature 47 °F 37 °F 18 °F (1958)
Degree Days  
Heating Degree Days 8 15  
Month to date heating degree days 185 201  
Since 1 July heating degree days 271 340  
Cooling Degree Days 0 0  
Month to date cooling degree days 0 0  
Year to date cooling degree days 2297 2092  
Growing Degree Days 7 (Base 50)    
Moisture  
Dew Point 39 °F    
Average Humidity 53    
Maximum Humidity 71    
Minimum Humidity 34    
Precipitation  
Precipitation 0.00 in 0.02 in 0.76 in (1972)
Month to date precipitation T 0.37  
Year to date precipitation 6.88 7.37  
Sea Level Pressure  
Sea Level Pressure 29.96 in    
Wind  
Wind Speed 10 mph (South)    
Max Wind Speed 28 mph    
Max Gust Speed 32 mph    
Visibility 10 miles    
Events      
T = Trace of Precipitation, MM = Missing Value Source: NWS Daily Summary

Daily Weather History Graph

Daily Weather History Graph

Search for Another Location

Airport or City:

Trip Planner

Search our weather history database for the weather conditions in past years. The results will help you decide how hot, cold, wet, or windy it might be!

Date:

Astronomy

Nov. 17, 2012 Rise Set
Actual Time 7:13 AM MST 5:28 PM MST
Civil Twilight 6:46 AM MST 5:55 PM MST
Nautical Twilight 6:15 AM MST 6:26 PM MST
Astronomical Twilight 5:45 AM MST 6:56 PM MST
Moon 11:01 AM MST (11/17) 9:41 PM MST (11/17)
Length of Visible Light 11h 09m
Length of Day
10h 14m
Waxing Crescent, 21% of the Moon is Illuminated
Nov 17
Waxing Crescent
Nov 20
First Quarter
Nov 28
Full
Dec 6
Last Quarter
Dec 13
New

Hourly Weather History & Observations

Time (MST) Temp. Dew Point Humidity Pressure Visibility Wind Dir Wind Speed Gust Speed Precip Events Conditions
12:51 AM 57.0 °F 42.1 °F 57% 29.97 in 10.0 mi South 5.8 mph - N/A   Overcast
1:51 AM 55.9 °F 42.1 °F 60% 29.96 in 10.0 mi SSW 4.6 mph - N/A   Overcast
2:51 AM 52.0 °F 39.9 °F 63% 29.97 in 10.0 mi South 4.6 mph - N/A   Mostly Cloudy
3:51 AM 46.9 °F 37.9 °F 71% 29.96 in 10.0 mi Calm Calm - N/A   Partly Cloudy
4:51 AM 48.9 °F 39.0 °F 69% 29.95 in 10.0 mi SSE 5.8 mph - N/A   Mostly Cloudy
5:51 AM 51.1 °F 37.9 °F 61% 29.95 in 10.0 mi SE 9.2 mph - N/A   Scattered Clouds
6:51 AM 53.1 °F 39.0 °F 59% 29.96 in 10.0 mi South 5.8 mph - N/A   Unknown
7:51 AM 53.1 °F 41.0 °F 64% 29.98 in 10.0 mi Variable 3.5 mph - N/A   Mostly Cloudy
8:51 AM 57.2 °F 41.0 °F 55% 30.11 in 10.0 mi Calm Calm - N/A   Overcast
9:51 AM 60.1 °F 39.0 °F 46% 29.99 in 10.0 mi SE 3.5 mph - N/A   Overcast
10:51 AM 64.0 °F 39.9 °F 41% 29.98 in 10.0 mi SSW 15.0 mph 21.9 mph N/A   Overcast
11:51 AM 64.9 °F 39.9 °F 40% 29.96 in 10.0 mi SW 18.4 mph 29.9 mph N/A   Mostly Cloudy
12:51 PM 66.9 °F 39.0 °F 36% 29.93 in 10.0 mi SW 24.2 mph 28.8 mph N/A   Scattered Clouds
1:51 PM 66.0 °F 37.9 °F 36% 29.91 in 10.0 mi SW 20.7 mph 27.6 mph N/A   Clear
2:51 PM 64.0 °F 39.0 °F 40% 29.90 in 10.0 mi SW 19.6 mph 29.9 mph N/A   Clear
3:51 PM 64.0 °F 37.9 °F 38% 29.92 in 10.0 mi SW 20.7 mph 27.6 mph N/A   Clear
4:51 PM 60.8 °F 39.2 °F 45% 30.06 in 10.0 mi SW 15.0 mph - N/A   Clear
5:51 PM 57.9 °F 37.9 °F 47% 29.94 in 10.0 mi SSW 11.5 mph - N/A   Clear
6:51 PM 54.0 °F 37.0 °F 53% 29.95 in 10.0 mi SSW 9.2 mph - N/A   Clear
7:51 PM 55.9 °F 39.0 °F 53% 29.96 in 10.0 mi SSE 6.9 mph - N/A   Clear
8:51 PM 55.0 °F 37.9 °F 53% 29.94 in 10.0 mi SSW 12.7 mph - N/A   Partly Cloudy
9:51 PM 50.0 °F 36.0 °F 59% 29.96 in 10.0 mi SE 9.2 mph - N/A   Clear
10:51 PM 52.0 °F 37.9 °F 59% 29.95 in 10.0 mi South 8.1 mph - N/A   Clear
11:51 PM 50.0 °F 37.0 °F 61% 29.96 in 10.0 mi SE 8.1 mph - N/A   Clear